Location: Newark
(44.3789°N, 0.6828°W)
Time: 06:34:49
(UTC+00:00)

Tiangong 2 - Visible Passes

Search period start: 19 July 2019 00:00
Search period end: 29 July 2019 00:00
Orbit: 185 x 377 km, 42.8° (Epoch: 18 July)

Date Brightness Start Highest point End Pass type
(mag) Time Alt. Az. Time Alt. Az. Time Alt. Az.
19 Jul 3.1 21:40:35 10° WSW 21:42:18 17° SW 21:42:18 17° SW visible
20 Jul 3.7 21:43:17 10° SW 21:43:36 10° SW 21:43:36 10° SW visible
21 Jul 2.5 20:08:57 10° W 20:11:39 27° SSW 20:14:20 10° SE visible
22 Jul 3.1 20:10:48 10° WSW 20:13:03 18° SSW 20:15:17 10° SSE visible
23 Jul 3.6 20:13:08 10° SW 20:14:20 12° SSW 20:15:32 10° S visible
